This is the latest recevied weather packets stored in our database for station/object GW1599. If no packets are shown the sender has not sent any weather packets the latest 10 day(s).
| Time | Temp. | Humidity | Pressure | Rain* | Wind** | Luminosity | Snow |
|---|---|---|---|---|---|---|---|
| 1777215257 | 13.89° C | 79% | 1018.9 hPa | 0 mm | - | - | - |
| 1777214931 | 13.89° C | 80% | 1018.6 hPa | 0 mm | - | - | - |
| 1777213826 | 13.33° C | 81% | 1018.6 hPa | 0 mm | - | - | - |
| 1777213102 | 13.33° C | 81% | 1018.6 hPa | 0 mm | - | - | - |
| 1777212052 | 13.33° C | 81% | 1018.2 hPa | 0 mm | - | - | - |
| 1777209158 | 11.67° C | 88% | 1018.2 hPa | 0 mm | - | - | - |
| 1777207359 | 11.11° C | 94% | 1018.2 hPa | 0 mm | - | - | - |
| 1777202317 | 9.44° C | 90% | 1016.9 hPa | 0 mm | - | - | - |
| 1777201941 | 9.44° C | 90% | 1016.9 hPa | 0 mm | - | - | - |
| 1777198332 | 10.56° C | 89% | 1015.9 hPa | 0 mm | - | - | - |
| 1777197265 | 11.11° C | 89% | 1015.5 hPa | 0 mm | - | - | - |
| 1777194014 | 12.22° C | 89% | 1015.2 hPa | 0 mm | - | - | - |
| 1777191156 | 12.22° C | 89% | 1014.9 hPa | 0 mm | - | - | - |
| 1777185397 | 12.22° C | 89% | 1014.2 hPa | 0 mm | - | - | - |
| 1777185022 | 12.22° C | 88% | 1014.2 hPa | 0 mm | - | - | - |
| 1777184672 | 12.22° C | 88% | 1014.2 hPa | 0 mm | - | - | - |
| 1777183947 | 12.78° C | 87% | 1014.2 hPa | 0 mm | - | - | - |
| 1777182526 | 13.33° C | 86% | 1014.2 hPa | 0 mm | - | - | - |
| 1777181801 | 13.33° C | 85% | 1014.2 hPa | 0 mm | - | - | - |
| 1777180334 | 13.89° C | 83% | 1013.8 hPa | 0 mm | - | - | - |
| 1777179652 | 14.44° C | 83% | 1013.8 hPa | 0 mm | - | - | - |
| 1777175664 | 15.56° C | 83% | 1013.5 hPa | 0 mm | - | - | - |
| 1777174570 | 15.56° C | 83% | 1013.2 hPa | 0 mm | - | - | - |
| 1777170649 | 16.67° C | 81% | 1012.8 hPa | 0 mm | - | - | - |
| 1777169539 | 17.22° C | 82% | 1012.5 hPa | 0 mm | - | - | - |
* Rain since midnight (hover to see other rain measurements)
** Current wind speed in m/s (hover to see current wind gust speed)